STARLINK-36209 (67022 NORAD) Tracking and Keplerian Element Data

This shows tracking and keplerian element data for the satellite.

Feedback or suggestion? Click here.




ElementValue
Catalog67022
NameSTARLINK-36209
Epoch Orbit143
Epoch Day354.25003472
Epoch Year2025
RAAN301.9345
Inclination69.9934
Eccentricity0.0003974
Argument of Perigee271.4094
Mean Anonmoly340.1482
Mean Motion15.92904878
Decay Rate-0.01299213
L11 67022U 25293V 25354.25003472 -.01299213 49445-3 -37429-2 0 9995
L22 67022 69.9934 301.9345 0003974 271.4094 340.1482 15.92904878 1437



Live tracking and technical data element details for STARLINK-36209 (NORAD 67022). STARLINK-36209 can be tracked NOW for your location showing map with azimuth and elevation plus other details from your city location.







IsCatalogInMostPopularTable: catalog: 67022, numindb: 57
Update: records affected: 1



GetName: 67022 STARLINK-36209

Hit Count: updated at: Tue, 17 Feb 2026 12:49:36 GMT